User: anonymous   Login
Location: Unspecified
(0.0000°N, 0.0000°E)
Time: 03:29:55
(UTC+00:00)
Language:

UFO 10 - Orbit

View from above orbital plane
View from above orbital plane
View from above satellite
View from above satellite

Ground track
Ground track

The orbit data is extracted from the following two-line orbital elements,

1 25967U 99063A   17165.17815521 0.00000000  00000-0  00000-0 0    09
2 25967   6.6252  38.9176 0003250  19.5499 340.4163  1.00270000    04
Epoch (UTC): 14 June 2017 04:16:32
Eccentricity: 0.0003250
inclination: 6.6252°
perigee height: 35773 km
apogee height: 35800 km
right ascension of ascending node: 38.9176°
argument of perigee: 19.5499°
revolutions per day: 1.00270000
mean anomaly at epoch: 340.4163°
orbit number at epoch: 0

The dashed part of the orbit path shows where the satellite is in the earth's shadow,  

DLR